When you browse on this site, cookies collect data to enhance your experience and personalize the content and advertising you see.
Visit our Privacy Policy to learn more. By continuing to use the site, you agree to this use of cookies and data.
  • In Spain
  • List of Countries
  • For 7 days
  • Water Temperature
  • Weather Map
  • Weather Widgets
  • user-avatar
    Login

    Hourly Weather Kruk

    Today, 21 September, Saturday

    Time Temperature Precipitation Wind Pressure Humidity
    00:00 +2°C° 0 mm 3 mps 745 mmHg 91%
    01:00 +1°C° 0 mm 3 mps 745 mmHg 92%
    02:00 +1°C° 0 mm 3 mps 746 mmHg 93%
    03:00 +1°C° 0 mm 3 mps 746 mmHg 93%
    04:00 0°C° 0 mm 3 mps 746 mmHg 92%
    05:00 0°C° 0 mm 3 mps 746 mmHg 92%
    06:00 +1°C° 0 mm 3 mps 746 mmHg 86%
    07:00 +3°C° 0 mm 3 mps 746 mmHg 79%
    08:00 +4°C° 0 mm 3 mps 747 mmHg 74%
    09:00 +7°C° 0 mm 3 mps 746 mmHg 66%
    10:00 +8°C° 0 mm 4 mps 746 mmHg 58%
    11:00 +11°C° 0 mm 4 mps 746 mmHg 50%
    12:00 +12°C° 0 mm 5 mps 745 mmHg 52%
    13:00 +11°C° 0 mm 6 mps 745 mmHg 54%
    14:00 +13°C° 0 mm 6 mps 745 mmHg 54%
    15:00 +10°C° 0 mm 6 mps 744 mmHg 62%
    16:00 +9°C° 0 mm 6 mps 744 mmHg 71%
    17:00 +8°C° 0 mm 6 mps 743 mmHg 80%
    18:00 +8°C° 0 mm 6 mps 743 mmHg 82%
    19:00 +9°C° 0 mm 6 mps 743 mmHg 84%
    20:00 +9°C° 0 mm 6 mps 743 mmHg 86%
    21:00 +10°C° 0 mm 6 mps 743 mmHg 84%
    22:00 +10°C° 0 mm 6 mps 742 mmHg 83%
    23:00 +11°C° 0 mm 6 mps 742 mmHg 81%

    Tomorrow, 22 September, Sunday

    Time Temperature Precipitation Wind Pressure Humidity
    00:00 +11°C° 0 mm 6 mps 742 mmHg 79%
    01:00 +11°C° 0 mm 6 mps 742 mmHg 77%
    02:00 +11°C° 0 mm 7 mps 742 mmHg 75%
    03:00 +11°C° 0 mm 6 mps 742 mmHg 78%
    04:00 +10°C° 0 mm 6 mps 742 mmHg 80%
    05:00 +10°C° 0 mm 6 mps 741 mmHg 83%
    06:00 +10°C° 0 mm 6 mps 742 mmHg 83%
    07:00 +10°C° 0 mm 6 mps 742 mmHg 82%
    08:00 +10°C° 0 mm 6 mps 742 mmHg 82%
    09:00 +11°C° 0 mm 6 mps 742 mmHg 79%
    10:00 +13°C° 0 mm 6 mps 742 mmHg 76%
    11:00 +13°C° 0 mm 5 mps 742 mmHg 73%
    12:00 +14°C° 0 mm 5 mps 742 mmHg 71%
    13:00 +15°C° 0 mm 5 mps 741 mmHg 68%
    14:00 +16°C° 0 mm 5 mps 741 mmHg 65%
    15:00 +16°C° 0 mm 5 mps 741 mmHg 66%
    16:00 +17°C° 0 mm 4 mps 741 mmHg 66%
    17:00 +17°C° 0 mm 3 mps 740 mmHg 67%
    18:00 +16°C° 0 mm 3 mps 740 mmHg 75%
    19:00 +13°C° 0 mm 3 mps 740 mmHg 82%
    20:00 +11°C° 0 mm 3 mps 741 mmHg 89%
    21:00 +11°C° 0 mm 3 mps 741 mmHg 90%
    22:00 +11°C° 0 mm 3 mps 741 mmHg 91%
    23:00 +10°C° 0 mm 3 mps 741 mmHg 92%

    Day after tomorrow, 23 September, Monday

    Time Temperature Precipitation Wind Pressure Humidity
    00:00 +10°C° 0 mm 3 mps 742 mmHg 91%
    01:00 +10°C° 0 mm 3 mps 742 mmHg 90%
    02:00 +9°C° 0 mm 3 mps 742 mmHg 89%
    03:00 +9°C° 0 mm 3 mps 742 mmHg 88%
    04:00 +8°C° 0 mm 3 mps 742 mmHg 86%
    05:00 +8°C° 0 mm 3 mps 742 mmHg 85%
    06:00 +8°C° 0 mm 3 mps 743 mmHg 84%
    07:00 +8°C° 0 mm 3 mps 743 mmHg 83%
    08:00 +7°C° 0 mm 4 mps 743 mmHg 82%
    09:00 +8°C° 0 mm 4 mps 744 mmHg 76%
    10:00 +10°C° 0 mm 4 mps 744 mmHg 71%
    11:00 +11°C° 0 mm 4 mps 744 mmHg 66%
    12:00 +11°C° 0 mm 4 mps 744 mmHg 63%
    13:00 +12°C° 0 mm 3 mps 744 mmHg 60%
    14:00 +12°C° 0 mm 3 mps 743 mmHg 58%
    15:00 +12°C° 0 mm 3 mps 743 mmHg 57%
    16:00 +12°C° 0 mm 3 mps 743 mmHg 56%
    17:00 +13°C° 0 mm 2 mps 743 mmHg 55%
    18:00 +11°C° 0 mm 3 mps 743 mmHg 53%
    19:00 +10°C° 0 mm 3 mps 743 mmHg 50%
    20:00 +10°C° 0 mm 3 mps 743 mmHg 48%
    21:00 +10°C° 0 mm 3 mps 744 mmHg 46%
    22:00 +10°C° 0 mm 3 mps 744 mmHg 43%
    23:00 +9°C° 0 mm 3 mps 744 mmHg 41%

    24 September, Tuesday

    Time Temperature Precipitation Wind Pressure Humidity
    00:00 +9°C° 0 mm 3 mps 744 mmHg 41%
    01:00 +9°C° 0 mm 3 mps 743 mmHg 40%
    02:00 +8°C° 0 mm 4 mps 743 mmHg 40%
    03:00 +9°C° 0 mm 3 mps 743 mmHg 40%
    04:00 +9°C° 0 mm 3 mps 743 mmHg 39%
    05:00 +9°C° 0 mm 3 mps 742 mmHg 39%
    06:00 +9°C° 0 mm 3 mps 742 mmHg 41%
    07:00 +9°C° 0 mm 3 mps 742 mmHg 42%
    08:00 +8°C° 0 mm 4 mps 742 mmHg 44%
    09:00 +10°C° 0 mm 4 mps 742 mmHg 44%
    10:00 +11°C° 0 mm 4 mps 742 mmHg 45%
    11:00 +12°C° 0 mm 4 mps 742 mmHg 45%
    12:00 +13°C° 0 mm 3 mps 742 mmHg 46%
    13:00 +14°C° 0 mm 3 mps 741 mmHg 46%
    14:00 +17°C° 0 mm 3 mps 741 mmHg 46%
    15:00 +16°C° 0 mm 3 mps 741 mmHg 50%
    16:00 +16°C° 0 mm 3 mps 740 mmHg 54%
    17:00 +14°C° 0 mm 3 mps 740 mmHg 58%
    18:00 +12°C° 0 mm 3 mps 740 mmHg 60%
    19:00 +10°C° 0 mm 3 mps 740 mmHg 62%
    20:00 +8°C° 0 mm 4 mps 740 mmHg 64%
    21:00 +8°C° 0 mm 3 mps 740 mmHg 64%
    22:00 +7°C° 0 mm 3 mps 740 mmHg 65%
    23:00 +7°C° 0 mm 3 mps 740 mmHg 66%

    25 September, Wednesday

    Time Temperature Precipitation Wind Pressure Humidity
    00:00 +7°C° 0 mm 3 mps 740 mmHg 69%
    01:00 +5°C° 0 mm 3 mps 740 mmHg 72%
    02:00 +5°C° 0 mm 3 mps 740 mmHg 75%
    03:00 +5°C° 0 mm 3 mps 739 mmHg 77%
    04:00 +4°C° 0 mm 3 mps 739 mmHg 80%
    05:00 +4°C° 0 mm 3 mps 739 mmHg 82%
    06:00 +5°C° 0 mm 3 mps 739 mmHg 79%
    07:00 +8°C° 0 mm 3 mps 739 mmHg 75%
    08:00 +9°C° 0 mm 3 mps 739 mmHg 72%
    09:00 +11°C° 0 mm 3 mps 739 mmHg 68%
    10:00 +14°C° 0 mm 4 mps 739 mmHg 64%
    11:00 +17°C° 0 mm 4 mps 739 mmHg 60%
    12:00 +18°C° 0 mm 4 mps 739 mmHg 56%
    13:00 +19°C° 0 mm 4 mps 738 mmHg 52%
    14:00 +21°C° 0 mm 5 mps 738 mmHg 48%
    15:00 +20°C° 0 mm 4 mps 738 mmHg 52%
    16:00 +19°C° 0 mm 4 mps 737 mmHg 56%
    17:00 +18°C° 0 mm 3 mps 737 mmHg 61%
    18:00 +17°C° 0 mm 3 mps 737 mmHg 65%
    19:00 +15°C° 0 mm 4 mps 737 mmHg 69%
    20:00 +14°C° 0 mm 4 mps 737 mmHg 74%
    21:00 +14°C° 0.1 mm 4 mps 737 mmHg 77%
    22:00 +14°C° 0.1 mm 4 mps 736 mmHg 80%
    23:00 +13°C° 0.1 mm 4 mps 736 mmHg 83%

    26 September, Thursday

    Time Temperature Precipitation Wind Pressure Humidity
    00:00 +13°C° 0.2 mm 4 mps 736 mmHg 85%
    01:00 +13°C° 0.2 mm 4 mps 736 mmHg 88%
    02:00 +13°C° 0.2 mm 4 mps 736 mmHg 91%
    03:00 +13°C° 0.1 mm 4 mps 736 mmHg 92%
    04:00 +13°C° 0.1 mm 3 mps 736 mmHg 94%
    05:00 +13°C° 0.1 mm 3 mps 736 mmHg 96%
    06:00 +13°C° 0 mm 3 mps 736 mmHg 94%
    07:00 +13°C° 0 mm 3 mps 736 mmHg 92%
    08:00 +13°C° 0 mm 3 mps 736 mmHg 91%
    09:00 +14°C° 0 mm 3 mps 736 mmHg 87%
    10:00 +16°C° 0 mm 3 mps 736 mmHg 83%
    11:00 +17°C° 0 mm 3 mps 737 mmHg 79%
    12:00 +17°C° 0.5 mm 4 mps 736 mmHg 77%
    13:00 +18°C° 0.5 mm 4 mps 736 mmHg 75%
    14:00 +18°C° 0.5 mm 4 mps 736 mmHg 73%
    15:00 +17°C° 0.5 mm 4 mps 736 mmHg 75%
    16:00 +17°C° 0.5 mm 4 mps 736 mmHg 77%
    17:00 +15°C° 0.5 mm 4 mps 736 mmHg 79%
    18:00 +14°C° 0 mm 4 mps 736 mmHg 82%
    19:00 +12°C° 0 mm 4 mps 736 mmHg 85%
    20:00 +11°C° 0 mm 3 mps 737 mmHg 88%
    21:00 +11°C° 0 mm 3 mps 737 mmHg 90%
    22:00 +10°C° 0 mm 3 mps 737 mmHg 91%
    23:00 +10°C° 0 mm 4 mps 737 mmHg 93%
    Show more